This is the latest recevied weather packets stored in our database for station/object EA6AMI-5. If no packets are shown the sender has not sent any weather packets the latest 10 day(s).
| Time | Temp. | Humidity | Pressure | Rain* | Wind** | Luminosity | Snow |
|---|---|---|---|---|---|---|---|
| 1777319643 | 17.22° C | 65% | 1017.6 hPa | 0 mm | - | 0 W/m² | - |
| 1777319104 | 17.22° C | 63% | 1017.7 hPa | 0 mm | - | 0 W/m² | - |
| 1777318564 | 17.22° C | 63% | 1017.4 hPa | 0 mm | - | 0 W/m² | - |
| 1777318024 | 17.78° C | 63% | 1017.2 hPa | 0 mm | - | 0 W/m² | - |
| 1777317484 | 17.78° C | 63% | 1017.3 hPa | 0 mm | - | 0 W/m² | - |
| 1777316944 | 17.78° C | 65% | 1017.1 hPa | 0 mm | - | 0 W/m² | - |
| 1777316404 | 17.78° C | 64% | 1017.1 hPa | 0 mm | - | 0 W/m² | - |
| 1777316043 | 17.78° C | 64% | 1017.1 hPa | 0 mm | - | 0 W/m² | - |
| 1777315504 | 18.33° C | 62% | 1017.1 hPa | 0 mm | - | 1 W/m² | - |
| 1777314964 | 18.89° C | 60% | 1017.1 hPa | 0 mm | - | 4 W/m² | - |
| 1777314424 | 18.89° C | 59% | 1017 hPa | 0 mm | - | 8 W/m² | - |
| 1777313884 | 19.44° C | 58% | 1016.8 hPa | 0 mm | - | 13 W/m² | - |
| 1777313343 | 19.44° C | 56% | 1016.9 hPa | 0 mm | - | 18 W/m² | - |
| 1777312804 | 20° C | 55% | 1016.8 hPa | 0 mm | - | 24 W/m² | - |
| 1777312444 | 20.56° C | 53% | 1017 hPa | 0 mm | - | 33 W/m² | - |
| 1777311903 | 20.56° C | 52% | 1016.8 hPa | 0 mm | - | 41 W/m² | - |
| 1777311364 | 21.11° C | 51% | 1016.8 hPa | 0 mm | - | 48 W/m² | - |
| 1777310823 | 21.11° C | 51% | 1016.8 hPa | 0 mm | - | 56 W/m² | - |
| 1777310283 | 21.11° C | 50% | 1017 hPa | 0 mm | - | 64 W/m² | - |
| 1777309744 | 21.11° C | 49% | 1016.8 hPa | 0 mm | - | 71 W/m² | - |
| 1777309203 | 21.11° C | 49% | 1016.9 hPa | 0 mm | - | 79 W/m² | - |
| 1777308843 | 21.11° C | 49% | 1017.1 hPa | 0 mm | - | 85 W/m² | - |
| 1777308304 | 21.11° C | 49% | 1017 hPa | 0 mm | - | 94 W/m² | - |
| 1777307763 | 21.11° C | 49% | 1017 hPa | 0 mm | - | 106 W/m² | - |
| 1777307223 | 21.11° C | 48% | 1017 hPa | 0 mm | - | 124 W/m² | - |
* Rain latest hour (hover to see other rain measurements)
** Current wind speed in m/s (hover to see current wind gust speed)